BEIDOU-2 IGSO-3

Last updated on Sun Apr 12 2026 00:02:52 GMT+0000 (Coordinated Universal Time)

1 37384U 11013A 26100.79916506 -.00000171 00000+0 00000+0 0 9991 2 37384 62.3219 40.7894 0034342 188.8035 4.9423 1.00284754 54980
UTC large
Height (km)
Speed (km/s)
/
Latitude / Longitude
Inclination (degrees)
Orbital Period (minutes)
Azimuth
Elevation
Range (km)
Doppler Factor

Next 0 passes for location: London (51.5072 / 0.1276)

Sorry there are no passes over London.
BEIDOU-2 IGSO-3